Regional Weather Roundup
Issued by NWS Bismarck, ND

Home | Current Version | Previous Version | Text Only | Print | Product List | Glossary On
Versions: 1 2 3 4 5 6 7 8 9 10 11 12 13 14 15 16 17 18 19 20 21 22 23 24 25 26 27 28 29 30 31 32 33 34 35 36 37 38 39 40 41 42 43 44 45 46 47 48 49 50
000
ASUS43 KBIS 051110
RWRBIS

NWR BROADCAST TEXT
NATIONAL WEATHER SERVICE BISMARCK ND
500 AM CST THU MAR 05 2015

NOTE: "FAIR" INDICATES FEW OR NO CLOUDS BELOW 12,000 FEET WITH NO
SIGNIFICANT WEATHER AND/OR OBSTRUCTIONS TO VISIBILITY.


CITY           SKY/WX    TMP DP  RH WIND       PRES   REMARKS
WILLISTON        N/A    N/A N/A N/A MISG      30.10F
MINOT          PTCLDY    -3 -12  65 S7        30.14F WCI -16
MINOT AFB      PTCLDY    -4 -11  69 SW10      30.14F WCI -21
BISMARCK       PTCLDY    -6 -12  75 E5        30.25F WCI -17
DICKINSON      CLEAR      4  -4  69 S14       30.06F WCI -14
GARRISON         N/A     -9 -14  78 S7        30.16F WCI -24
HETTINGER ARPT CLEAR      5  -5  63 S5        30.12F WCI  -4
JAMESTOWN      MOCLDY   -12 -18  74 S3        30.28F
BEACH          PTSUNNY    5   1  85 S5        30.06F WCI  -4
CARRINGTON     FAIR      -2  -9  71 MISG      30.26F
CROSBY         FAIR      -2 -11  65 S17       30.06F WCI -24
HARVEY         FAIR      -9 -17  70 CALM      30.22F
HAZEN          FAIR      -6 -13  71 CALM      30.19F
LINTON         FAIR      -6 -11  77 E6        30.26F WCI -18
MANDAN         FAIR       0  -8  71 S12       30.21F WCI -18
OAKES            N/A     -6 -11  77 SW8       30.36S WCI -21
RUGBY          FAIR      -9 -17  70 S8        30.20F WCI -26
WATFORD CITY   FAIR      -6 -11  77 CALM      30.08F
$$

CITY           SKY/WX    TMP DP  RH WIND       PRES   REMARKS
GRAND FORKS    PTCLDY   -12 -18  74 S8        30.36F WCI -29
GRAND FORKS AF PTCLDY   -11 -19  69 SW7       30.34F WCI -27
DEVILS LAKE    PTCLDY    -9 -17  70 SW6       30.25F WCI -23
FARGO          PTCLDY    -9 -16  71 S7        30.40F WCI -24
CANDO          FAIR     -18 -22  83 S7        30.24F WCI -35
CAVALIER       FAIR      -9 -17  70 S6        30.31S WCI -23
GWINNER        SUNNY     -4 -13  65 SW12      30.38S WCI -22
ROLLA          FAIR      -9 -15  77 SW10      30.16F WCI -28
WALHALLA         N/A     -6 -17  59 SW5       30.29S WCI -17
$$

CITY           SKY/WX    TMP DP  RH WIND       PRES   REMARKS
ABERDEEN       MOCLDY   -15 -21  74 S7        30.39F WCI -31
MOBRIDGE       CLEAR     -1  -7  75 SE13      30.25F WCI -19
BUFFALO          N/A      3  -5  69 S6        30.02F WCI  -8
RAPID CITY     CLEAR      2  -3  80 CALM      30.14F
GLASGOW        PTCLDY    11   1  64 SE3       30.01S
SIDNEY         PTCLDY     3   1  92 S3        30.12F
WOLF POINT     MOCLDY     8   0  69 E6        30.04F WCI  -2
GLENDIVE       CLOUDY    10   0  61 S12       30.05F WCI  -4
MILES CITY     CLOUDY    13   4  67 MISG      30.06F
BAKER          CLEAR      3  -2  79 E5        30.06F WCI  -6
$$

CITY           SKY/WX    TMP DP  RH WIND       PRES   REMARKS
BILLINGS       CLOUDY    23   5  46 SW17      30.07F WCI   9
GREAT FALLS    PTCLDY    28  13  53 SW14      30.06S WCI  17
REGINA         CLEAR    -13 -18  77 E13       30.02F WCI -34
ESTEVAN        CLEAR    -13 -18  77 SE6       30.07F WCI -27
$$



USA.gov is the U.S. government's official web portal to all federal, state and local government web resources and services.